Location: Stokes Fall Starparty
(41.2298°N, 74.7506°W)
Time: 20:20:07
(UTC-04:00)

Daily predictions for brighter satellites

Satellite Brightness Start Highest point End
(mag) Time Altitude Azimuth Time Altitude Azimuth Time Altitude Azimuth
Okean 3 Rocket 4.5 21:02:12 10° SSE 21:06:11 32° E 21:10:10 10° NNE
Cosmos 2221 3.4 21:03:07 10° NNE 21:07:05 33° ENE 21:11:03 10° SE
Envisat 3.3 21:05:08 10° S 21:10:12 74° WSW 21:15:18 10° NNW
Meteor 1-29 3.0 21:07:59 10° NNE 21:11:22 57° E 21:14:46 10° S
USA 186 3.9 21:17:15 10° SW 21:18:53 16° W 21:20:27 10° NW
Cosmos 1140 Rocket 3.5 21:16:29 10° SSW 21:21:40 89° WNW 21:26:51 10° NNE
Cosmos 2082 4.1 21:16:14 10° SSW 21:21:49 70° WNW 21:27:28 10° NNE
USA 32 4.0 21:16:54 10° S 21:22:07 72° E 21:27:21 10° N
SAR-Lupe-1 4.1 21:19:17 10° SSE 21:22:51 73° ENE 21:26:27 10° N
Cosmos 1570 Rocket 4.5 21:18:09 10° N 21:23:18 48° ENE 21:28:16 10° SE
Cosmos 1242 Rocket 3.7 21:22:00 10° NNE 21:25:20 30° ENE 21:28:21 12° SE
Cosmos 2297 Rocket 2.7 21:22:52 10° SSW 21:28:29 66° WNW 21:34:08 10° NNE
Resurs 01 Rocket 4.1 21:26:03 10° SW 21:29:21 20° W 21:32:39 10° NW
Cosmos 1939 Rocket 3.8 21:29:23 10° S 21:33:12 46° W 21:37:07 10° NNW
H-2A ROCKET BODY 3.9 21:35:19 12° SE 21:35:19 12° SE 21:37:35 10° ESE
Cosmos 1867 3.8 21:30:59 10° S 21:36:12 50° ESE 21:41:28 10° NE
Cosmos 2100 Rocket 4.2 21:32:56 10° N 21:39:11 62° E 21:45:23 10° SSE
Cosmos 1459 Rocket 4.2 21:33:02 10° N 21:39:14 57° E 21:45:04 11° SSE
Cosmos 2061 Rocket 4.3 21:33:42 10° N 21:39:56 53° ENE 21:45:43 12° SSE
MetOp-B 4.3 21:35:50 11° SSE 21:41:00 63° ENE 21:46:18 10° N
Cosmos 2263 Rocket 4.0 21:40:06 10° ESE 21:41:18 11° E 21:42:34 10° E
H-2A R/B 4.3 21:41:36 10° ENE 21:42:51 11° ENE 21:44:06 10° NE
Cosmos 1340 Rocket 3.4 21:40:28 10° SSW 21:44:25 60° W 21:48:27 10° N
Cosmos 1300 4.3 21:45:15 10° NNE 21:48:10 20° ENE 21:50:00 15° ESE
ATLAS 5 CENTAUR R/B 1.8 21:44:25 10° SSW 21:49:02 89° WNW 21:54:07 10° NE
Cosmos 2173 Rocket 4.0 21:46:16 10° N 21:52:26 71° E 21:58:07 13° SSE
SPOT 5 3.1 21:49:06 15° SSE 21:52:55 57° ENE 21:57:53 10° N
Cosmos 1850 Rocket 4.1 21:48:09 10° SSW 21:53:19 82° WNW 21:58:33 10° NNE
Lacrosse 5 2.9 21:49:56 10° NNW 21:54:39 37° NE 21:58:57 12° E
YAOGAN 6 4.0 21:52:01 10° SSW 21:55:21 35° W 21:58:46 10° NNW
Cosmos 2084 3.1 21:51:23 10° SSW 21:55:24 83° SE 21:59:15 10° NE
Helios 1B rocket 4.3 21:53:04 10° N 21:56:47 32° WNW 22:00:29 10° SW
Cosmos 2237 Rocket 3.8 21:52:15 10° NW 21:56:59 28° WSW 22:01:42 10° SSW
Cosmos 1726 3.1 21:53:45 10° NNE 21:57:05 31° ENE 21:58:49 21° SE
USA 234 3.2 21:52:06 10° NE 21:58:38 69° SE 22:05:08 10° SW
Cosmos 371 Rocket 4.5 21:58:39 10° N 22:02:54 30° ENE 22:05:42 17° ESE
CZ-3B R/B 3.9 22:00:13 10° SW 22:03:13 79° SE 22:13:36 10° NE
Cosmos 1603 4.2 21:58:10 10° NNW 22:03:39 48° ENE 22:07:25 19° SE
H-2A R/B 2.4 22:00:47 18° SE 22:04:33 53° ENE 22:09:49 10° N
ERS-1 Rocket 3.5 22:01:46 10° S 22:06:42 57° W 22:11:41 10° NNW
Atlas Centaur 2 3.1 22:05:09 10° SW 22:06:40 12° S 22:06:40 12° S
Cosmos 1802 Rocket 3.9 22:04:56 10° N 22:11:06 85° E 22:16:08 16° S
Abrixas rocket 4.0 22:09:08 10° NW 22:12:00 27° NNE 22:14:51 10° ENE
Cosmos 1818 3.8 22:07:08 10° NW 22:12:32 65° WSW 22:16:16 20° SSE
Cosmos 1725 Rocket 4.3 22:07:46 10° N 22:13:53 53° ENE 22:17:52 22° SSE
Cosmos 1908 4.0 22:13:17 10° NNW 22:17:03 49° W 22:20:03 15° SSW
Cosmos 1674 3.5 22:13:24 10° SSW 22:17:04 49° W 22:20:44 10° N
SL-16 R/B 3.1 22:15:17 10° NW 22:20:38 44° WSW 22:25:10 14° S
Cosmos 1943 4.2 22:15:44 10° N 22:20:52 34° ENE 22:24:10 19° ESE
Cosmos 220 Rocket 4.4 22:20:53 26° SSE 22:22:51 42° ESE 22:27:02 10° NNE
Landsat 7 4.1 22:20:56 25° SE 22:23:29 55° ENE 22:28:08 10° N
ARGOS 3.4 22:20:18 17° S 22:24:34 67° WSW 22:29:59 10° NNW
Cosmos 1408 Rocket 3.7 22:23:36 14° SSW 22:27:17 71° W 22:31:37 10° N
KORONAS-FOTON 4.3 22:24:13 13° SSW 22:27:33 56° W 22:31:18 10° N
Tiangong 1 1.2 22:33:05 10° W 22:35:51 60° N 22:36:45 35° ENE
DMSP B5D2-2 4.0 22:31:49 10° NNE 22:37:03 67° ESE 22:40:08 25° S
Cosmos 1864 Rocket 4.5 22:31:15 10° N 22:37:39 80° E 22:41:31 25° SSE
Terra 2.1 22:36:22 31° SE 22:38:25 54° ENE 22:43:04 10° N
Cosmos 2058 3.6 22:38:51 33° ESE 22:39:40 36° E 22:43:32 10° NNE
Cosmos 1703 4.3 22:40:50 29° E 22:41:09 29° E 22:44:38 10° NNE
Cosmos 2016 Rocket 4.3 22:36:50 10° NNW 22:43:02 65° W 22:47:32 19° S
Meteor 1-11 4.4 22:40:37 28° SSE 22:43:34 56° E 22:49:15 10° NNE
Cosmos 1356 4.0 22:44:13 40° E 22:44:16 40° E 22:47:33 10° NNE
Cosmos 1500 Rocket 3.6 22:45:14 37° SSE 22:46:52 65° E 22:51:18 10° NNE
Cosmos 332 Rocket 3.9 22:47:37 10° NNW 22:52:32 75° WSW 22:54:33 36° S
ERBS 3.1 22:50:44 10° NNW 22:54:00 43° NE 22:54:40 37° ENE
Cosmos 2151 3.0 22:54:01 45° SSE 22:55:10 66° E 22:59:27 10° NNE
Cosmos 1814 Rocket 4.0 22:50:34 10° NNW 22:55:57 84° WSW 22:58:11 36° SSE
CARTOSAT-1 3.5 22:55:32 44° SSE 22:56:53 85° ENE 23:01:13 10° NNW
Meteor 1-27 4.3 22:52:14 10° N 22:58:04 70° E 23:00:29 36° SSE
RESURS DK-1 2.6 22:54:07 10° NNW 22:58:14 60° WSW 22:59:21 43° SSW
SPOT 1/Viking Rocket 4.3 22:56:36 23° SSW 22:59:31 46° W 23:04:28 10° NNW
Cosmos 1486 Rocket 3.9 22:57:04 27° SSW 22:59:57 81° ESE 23:05:17 10° NNE
Spot 4 4.3 23:00:17 36° ESE 23:01:48 48° ENE 23:06:28 10° N
Cosmos 2233 Rocket 3.9 23:02:18 10° N 23:08:33 87° E 23:11:20 35° S
Cosmos 841 Rocket 3.4 23:04:15 10° NNW 23:09:32 80° ENE 23:11:13 44° SSE
Cosmos 1328 Rocket 4.4 23:07:04 10° NNW 23:11:11 42° W 23:12:49 29° SW
Cosmos 2228 Rocket 3.9 23:08:15 10° NNW 23:12:39 46° W 23:14:28 30° SW
Cosmos 1763 Rocket 3.4 23:07:53 10° NNW 23:13:00 75° WSW 23:14:35 44° S
Cosmos 1515 Rocket 4.0 23:10:31 10° NNW 23:14:45 54° W 23:16:02 38° SSW
H-2A R/B 2.1 23:17:20 52° S 23:18:17 73° WSW 23:22:34 10° NNW
Cosmos 1151 Rocket 3.4 23:19:30 10° NNW 23:23:49 57° W 23:24:51 44° SW
Cosmos 1300 4.4 23:20:40 10° NW 23:23:50 25° W 23:25:01 21° WSW
Cosmos 2263 Rocket 2.1 23:21:44 33° SSW 23:24:18 88° ESE 23:29:55 10° NNE
Cosmos 1626 2.1 23:25:43 68° WSW 23:25:57 71° W 23:29:41 10° N
SL-19 R/B 4.3 23:22:44 10° N 23:28:02 71° WNW 23:30:50 30° SSW
IGS 5A 4.5 23:33:58 33° WSW 23:34:46 36° W 23:38:38 10° NNW
Lacrosse 5 2.4 23:32:53 10° WNW 23:37:39 42° SW 23:38:08 41° SW
USA 234 4.5 23:35:20 10° NE 23:41:23 42° NNW 23:47:25 10° W
H-2A R/B 4.1 23:41:24 13° SW 23:44:17 20° W 23:48:07 10° NW
Cosmos 1503 Rocket 4.0 23:43:59 45° SSW 23:45:36 77° WNW 23:50:48 10° NNE
Cosmos 2285 Rocket 3.9 23:42:20 10° NNW 23:48:42 85° WSW 23:50:38 48° SSE
Abrixas rocket 3.8 23:45:44 10° WNW 23:47:34 31° WNW 23:47:34 31° WNW
Cosmos 1869 3.5 23:46:41 10° N 23:50:18 60° NE 23:50:18 60° NE
CZ-4C R/B 3.5 23:53:11 65° WSW 23:53:19 66° WSW 23:57:41 10° NNW
